Year,Month,Day,Hour,Minute,Value (Times are PST for temperature in C)
2019,03,18,00,00,4.70
2019,03,18,00,01,4.60
2019,03,18,00,02,4.60
2019,03,18,00,03,4.60
2019,03,18,00,04,4.60
2019,03,18,00,05,4.60
2019,03,18,00,06,4.60
2019,03,18,00,07,4.60
2019,03,18,00,08,4.60
2019,03,18,00,09,4.60
2019,03,18,00,10,4.60
2019,03,18,00,11,4.60
2019,03,18,00,12,4.60
2019,03,18,00,13,4.60
2019,03,18,00,14,4.60
2019,03,18,00,15,4.50
2019,03,18,00,16,4.50
2019,03,18,00,17,4.50
2019,03,18,00,18,4.50
2019,03,18,00,19,4.50
2019,03,18,00,20,4.60
2019,03,18,00,21,4.60
2019,03,18,00,22,4.60
2019,03,18,00,23,4.50
2019,03,18,00,24,4.50
2019,03,18,00,25,4.50
2019,03,18,00,26,4.50
2019,03,18,00,27,4.50
2019,03,18,00,28,4.50
2019,03,18,00,29,4.50
2019,03,18,00,30,4.50
2019,03,18,00,31,4.40
2019,03,18,00,32,4.40
2019,03,18,00,33,4.40
2019,03,18,00,34,4.40
2019,03,18,00,35,4.40
2019,03,18,00,36,4.40
2019,03,18,00,37,4.40
2019,03,18,00,38,4.40
2019,03,18,00,39,4.40
2019,03,18,00,40,4.40
2019,03,18,00,41,4.40
2019,03,18,00,42,4.30
2019,03,18,00,43,4.30
2019,03,18,00,44,4.30
2019,03,18,00,45,4.30
2019,03,18,00,46,4.30
2019,03,18,00,47,4.30
2019,03,18,00,48,4.30
2019,03,18,00,49,4.30
2019,03,18,00,50,4.30
2019,03,18,00,51,4.20
2019,03,18,00,52,4.20
2019,03,18,00,53,4.20
2019,03,18,00,54,4.20
2019,03,18,00,55,4.20
2019,03,18,00,56,4.20
2019,03,18,00,57,4.20
2019,03,18,00,58,4.20
2019,03,18,00,59,4.20
2019,03,18,01,00,4.20
2019,03,18,01,01,4.20
2019,03,18,01,02,4.20
2019,03,18,01,03,4.20
2019,03,18,01,04,4.20
2019,03,18,01,05,4.10
2019,03,18,01,06,4.10
2019,03,18,01,07,4.10
2019,03,18,01,08,4.10
2019,03,18,01,09,4.10
2019,03,18,01,10,4.10
2019,03,18,01,11,4.10
2019,03,18,01,12,4.10
2019,03,18,01,13,4.10
2019,03,18,01,14,4.00
2019,03,18,01,15,4.00
2019,03,18,01,16,4.00
2019,03,18,01,17,4.00
2019,03,18,01,18,4.00
2019,03,18,01,19,4.00
2019,03,18,01,20,4.00
2019,03,18,01,21,3.90
2019,03,18,01,22,3.90
2019,03,18,01,23,3.90
2019,03,18,01,24,3.90
2019,03,18,01,25,3.90
2019,03,18,01,26,3.90
2019,03,18,01,27,3.90
2019,03,18,01,28,3.90
2019,03,18,01,29,3.90
2019,03,18,01,30,3.80
2019,03,18,01,31,3.80
2019,03,18,01,32,3.80
2019,03,18,01,33,3.80
2019,03,18,01,34,3.80
2019,03,18,01,35,3.80
2019,03,18,01,36,3.80
2019,03,18,01,37,3.80
2019,03,18,01,38,3.80
2019,03,18,01,39,3.80
2019,03,18,01,40,3.70
2019,03,18,01,41,3.70
2019,03,18,01,42,3.70
2019,03,18,01,43,3.70
2019,03,18,01,44,3.70
2019,03,18,01,45,3.70
2019,03,18,01,46,3.70
2019,03,18,01,47,3.70
2019,03,18,01,48,3.70
2019,03,18,01,49,3.70
2019,03,18,01,50,3.70
2019,03,18,01,51,3.70
2019,03,18,01,52,3.70
2019,03,18,01,53,3.70
2019,03,18,01,54,3.70
2019,03,18,01,55,3.70
2019,03,18,01,56,3.70
2019,03,18,01,57,3.70
2019,03,18,01,58,3.70
2019,03,18,01,59,3.70
2019,03,18,02,00,3.70
2019,03,18,02,01,3.70
2019,03,18,02,02,3.70
2019,03,18,02,03,3.70
2019,03,18,02,04,3.70
2019,03,18,02,05,3.70
2019,03,18,02,06,3.70
2019,03,18,02,07,3.70
2019,03,18,02,08,3.70
2019,03,18,02,09,3.70
2019,03,18,02,10,3.70
2019,03,18,02,11,3.70
2019,03,18,02,12,3.70
2019,03,18,02,13,3.70
2019,03,18,02,14,3.60
2019,03,18,02,15,3.60
2019,03,18,02,16,3.60
2019,03,18,02,17,3.60
2019,03,18,02,18,3.60
2019,03,18,02,19,3.50
2019,03,18,02,20,3.50
2019,03,18,02,21,3.50
2019,03,18,02,22,3.50
2019,03,18,02,23,3.40
2019,03,18,02,24,3.40
2019,03,18,02,25,3.40
2019,03,18,02,26,3.40
2019,03,18,02,27,3.30
2019,03,18,02,28,3.30
2019,03,18,02,29,3.30
2019,03,18,02,30,3.30
2019,03,18,02,31,3.30
2019,03,18,02,32,3.20
2019,03,18,02,33,3.20
2019,03,18,02,34,3.20
2019,03,18,02,35,3.20
2019,03,18,02,36,3.20
2019,03,18,02,37,3.20
2019,03,18,02,38,3.20
2019,03,18,02,39,3.20
2019,03,18,02,40,3.20
2019,03,18,02,41,3.20
2019,03,18,02,42,3.20
2019,03,18,02,43,3.20
2019,03,18,02,44,3.20
2019,03,18,02,45,3.20
2019,03,18,02,46,3.20
2019,03,18,02,47,3.20
2019,03,18,02,48,3.20
2019,03,18,02,49,3.20
2019,03,18,02,50,3.20
2019,03,18,02,51,3.20
2019,03,18,02,52,3.20
2019,03,18,02,53,3.20
2019,03,18,02,54,3.20
2019,03,18,02,55,3.20
2019,03,18,02,56,3.20
2019,03,18,02,57,3.20
2019,03,18,02,58,3.20
2019,03,18,02,59,3.20
2019,03,18,03,00,3.20
2019,03,18,03,01,3.20
2019,03,18,03,02,3.10
2019,03,18,03,03,3.10
2019,03,18,03,04,3.10
2019,03,18,03,05,3.10
2019,03,18,03,06,3.10
2019,03,18,03,07,3.10
2019,03,18,03,08,3.10
2019,03,18,03,09,3.10
2019,03,18,03,10,3.10
2019,03,18,03,11,3.10
2019,03,18,03,12,3.10
2019,03,18,03,13,3.10
2019,03,18,03,14,3.10
2019,03,18,03,15,3.10
2019,03,18,03,16,3.10
2019,03,18,03,17,3.10
2019,03,18,03,18,3.00
2019,03,18,03,19,3.00
2019,03,18,03,20,3.00
2019,03,18,03,21,3.00
2019,03,18,03,22,3.00
2019,03,18,03,23,3.00
2019,03,18,03,24,3.00
2019,03,18,03,25,3.00
2019,03,18,03,26,3.00
2019,03,18,03,27,3.00
2019,03,18,03,28,3.00
2019,03,18,03,29,3.00
2019,03,18,03,30,3.00
2019,03,18,03,31,3.00
2019,03,18,03,32,3.00
2019,03,18,03,33,2.90
2019,03,18,03,34,3.00
2019,03,18,03,35,3.00
2019,03,18,03,36,3.00
2019,03,18,03,37,3.00
2019,03,18,03,38,3.00
2019,03,18,03,39,3.00
2019,03,18,03,40,3.00
2019,03,18,03,41,3.00
2019,03,18,03,42,3.00
2019,03,18,03,43,3.00
2019,03,18,03,44,3.00
2019,03,18,03,45,3.00
2019,03,18,03,46,3.00
2019,03,18,03,47,3.10
2019,03,18,03,48,3.00
2019,03,18,03,49,3.00
2019,03,18,03,50,3.00
2019,03,18,03,51,3.00
2019,03,18,03,52,2.90
2019,03,18,03,53,2.90
2019,03,18,03,54,2.90
2019,03,18,03,55,2.90
2019,03,18,03,56,2.90
2019,03,18,03,57,2.90
2019,03,18,03,58,2.90
2019,03,18,03,59,2.90
2019,03,18,04,00,2.90
2019,03,18,04,01,2.90
2019,03,18,04,02,2.90
2019,03,18,04,03,2.90
2019,03,18,04,04,2.90
2019,03,18,04,05,2.90
2019,03,18,04,06,2.90
2019,03,18,04,07,2.90
2019,03,18,04,08,2.90
2019,03,18,04,09,2.90
2019,03,18,04,10,2.90
2019,03,18,04,11,2.90
2019,03,18,04,12,2.90
2019,03,18,04,13,2.90
2019,03,18,04,14,2.90
2019,03,18,04,15,2.80
2019,03,18,04,16,2.80
2019,03,18,04,17,2.80
2019,03,18,04,18,2.80
2019,03,18,04,19,2.80
2019,03,18,04,20,2.80
2019,03,18,04,21,2.80
2019,03,18,04,22,2.80
2019,03,18,04,23,2.80
2019,03,18,04,24,2.80
2019,03,18,04,25,2.80
2019,03,18,04,26,2.80
2019,03,18,04,27,2.80
2019,03,18,04,28,2.80
2019,03,18,04,29,2.80
2019,03,18,04,30,2.80
2019,03,18,04,31,2.80
2019,03,18,04,32,2.80
2019,03,18,04,33,2.80
2019,03,18,04,34,2.80
2019,03,18,04,35,2.80
2019,03,18,04,36,2.80
2019,03,18,04,37,2.80
2019,03,18,04,38,2.80
2019,03,18,04,39,2.80
2019,03,18,04,40,2.80
2019,03,18,04,41,2.80
2019,03,18,04,42,2.80
2019,03,18,04,43,2.80
2019,03,18,04,44,2.80
2019,03,18,04,45,2.70
2019,03,18,04,46,2.70
2019,03,18,04,47,2.70
2019,03,18,04,48,2.70
2019,03,18,04,49,2.70
2019,03,18,04,50,2.70
2019,03,18,04,51,2.70
2019,03,18,04,52,2.70
2019,03,18,04,53,2.70
2019,03,18,04,54,2.70
2019,03,18,04,55,2.70
2019,03,18,04,56,2.70
2019,03,18,04,57,2.70
2019,03,18,04,58,2.70
2019,03,18,04,59,2.70
2019,03,18,05,00,2.70
2019,03,18,05,01,2.70
2019,03,18,05,02,2.70
2019,03,18,05,03,2.70
2019,03,18,05,04,2.70
2019,03,18,05,05,2.70
2019,03,18,05,06,2.70
2019,03,18,05,07,2.70
2019,03,18,05,08,2.80
2019,03,18,05,09,2.70
2019,03,18,05,10,2.80
2019,03,18,05,11,2.80
2019,03,18,05,12,2.80
2019,03,18,05,13,2.80
2019,03,18,05,14,2.80
2019,03,18,05,15,2.80
2019,03,18,05,16,2.70
2019,03,18,05,17,2.70
2019,03,18,05,18,2.70
2019,03,18,05,19,2.70
2019,03,18,05,20,2.60
2019,03,18,05,21,2.60
2019,03,18,05,22,2.60
2019,03,18,05,23,2.70
2019,03,18,05,24,2.70
2019,03,18,05,25,2.70
2019,03,18,05,26,2.70
2019,03,18,05,27,2.70
2019,03,18,05,28,2.70
2019,03,18,05,29,2.70
2019,03,18,05,30,2.70
2019,03,18,05,31,2.70
2019,03,18,05,32,2.70
2019,03,18,05,33,2.60
2019,03,18,05,34,2.60
2019,03,18,05,35,2.60
2019,03,18,05,36,2.60
2019,03,18,05,37,2.60
2019,03,18,05,38,2.60
2019,03,18,05,39,2.60
2019,03,18,05,40,2.60
2019,03,18,05,41,2.50
2019,03,18,05,42,2.50
2019,03,18,05,43,2.50
2019,03,18,05,44,2.50
2019,03,18,05,45,2.50
2019,03,18,05,46,2.40
2019,03,18,05,47,2.40
2019,03,18,05,48,2.40
2019,03,18,05,49,2.40
2019,03,18,05,50,2.40
2019,03,18,05,51,2.40
2019,03,18,05,52,2.30
2019,03,18,05,53,2.30
2019,03,18,05,54,2.30
2019,03,18,05,55,2.30
2019,03,18,05,56,2.20
2019,03,18,05,57,2.20
2019,03,18,05,58,2.20
2019,03,18,05,59,2.20
2019,03,18,06,00,2.20
2019,03,18,06,01,2.20
2019,03,18,06,02,2.20
2019,03,18,06,03,2.20
2019,03,18,06,04,2.20
2019,03,18,06,05,2.20
2019,03,18,06,06,2.20
2019,03,18,06,07,2.20
2019,03,18,06,08,2.20
2019,03,18,06,09,2.20
2019,03,18,06,10,2.20
2019,03,18,06,11,2.20
2019,03,18,06,12,2.20
2019,03,18,06,13,2.10
2019,03,18,06,14,2.10
2019,03,18,06,15,2.10
2019,03,18,06,16,2.10
2019,03,18,06,17,2.10
2019,03,18,06,18,2.10
2019,03,18,06,19,2.20
2019,03,18,06,20,2.20
2019,03,18,06,21,2.20
2019,03,18,06,22,2.20
2019,03,18,06,23,2.20
2019,03,18,06,24,2.30
2019,03,18,06,25,2.30
2019,03,18,06,26,2.30
2019,03,18,06,27,2.30
2019,03,18,06,28,2.30
2019,03,18,06,29,2.20
2019,03,18,06,30,2.20
2019,03,18,06,31,2.20
2019,03,18,06,32,2.20
2019,03,18,06,33,2.20
2019,03,18,06,34,2.30
2019,03,18,06,35,2.30
2019,03,18,06,36,2.30
2019,03,18,06,37,2.30
2019,03,18,06,38,2.30
2019,03,18,06,39,2.30
2019,03,18,06,40,2.30
2019,03,18,06,41,2.30
2019,03,18,06,42,2.20
2019,03,18,06,43,2.20
2019,03,18,06,44,2.20
2019,03,18,06,45,2.20
2019,03,18,06,46,2.20
2019,03,18,06,47,2.20
2019,03,18,06,48,2.20
2019,03,18,06,49,2.20
2019,03,18,06,50,2.20
2019,03,18,06,51,2.20
2019,03,18,06,52,2.20
2019,03,18,06,53,2.20
2019,03,18,06,54,2.10
2019,03,18,06,55,2.10
2019,03,18,06,56,2.10
2019,03,18,06,57,2.10
2019,03,18,06,58,2.10
2019,03,18,06,59,2.10
2019,03,18,07,00,2.20
2019,03,18,07,01,2.20
2019,03,18,07,02,2.20
2019,03,18,07,03,2.10
2019,03,18,07,04,2.10
2019,03,18,07,05,2.10
2019,03,18,07,06,2.10
2019,03,18,07,07,2.00
2019,03,18,07,08,2.00
2019,03,18,07,09,2.00
2019,03,18,07,10,2.00
2019,03,18,07,11,1.90
2019,03,18,07,12,1.90
2019,03,18,07,13,1.90
2019,03,18,07,14,1.90
2019,03,18,07,15,1.90
2019,03,18,07,16,2.00
2019,03,18,07,17,2.00
2019,03,18,07,18,2.00
2019,03,18,07,19,2.00
2019,03,18,07,20,2.00
2019,03,18,07,21,2.00
2019,03,18,07,22,2.10
2019,03,18,07,23,2.10
2019,03,18,07,24,2.10
2019,03,18,07,25,2.10
2019,03,18,07,26,2.10
2019,03,18,07,27,2.10
2019,03,18,07,28,2.10
2019,03,18,07,29,2.10
2019,03,18,07,30,2.10
2019,03,18,07,31,2.10
2019,03,18,07,32,2.10
2019,03,18,07,33,2.10
2019,03,18,07,34,2.10
2019,03,18,07,35,2.10
2019,03,18,07,36,2.10
2019,03,18,07,37,2.10
2019,03,18,07,38,2.10
2019,03,18,07,39,2.10
2019,03,18,07,40,2.10
2019,03,18,07,41,2.10
2019,03,18,07,42,2.10
2019,03,18,07,43,2.10
2019,03,18,07,44,2.10
2019,03,18,07,45,2.20
2019,03,18,07,46,2.20
2019,03,18,07,47,2.20
2019,03,18,07,48,2.20
2019,03,18,07,49,2.20
2019,03,18,07,50,2.20
2019,03,18,07,51,2.20
2019,03,18,07,52,2.20
2019,03,18,07,53,2.20
2019,03,18,07,54,2.20
2019,03,18,07,55,2.20
2019,03,18,07,56,2.20
2019,03,18,07,57,2.20
2019,03,18,07,58,2.10
2019,03,18,07,59,2.10
2019,03,18,08,00,2.10
2019,03,18,08,01,2.10
2019,03,18,08,02,2.10
2019,03,18,08,03,2.10
2019,03,18,08,04,2.10
2019,03,18,08,05,2.10
2019,03,18,08,06,2.10
2019,03,18,08,07,2.10
2019,03,18,08,08,2.10
2019,03,18,08,09,2.10
2019,03,18,08,10,2.00
2019,03,18,08,11,2.00
2019,03,18,08,12,2.10
2019,03,18,08,13,2.10
2019,03,18,08,14,2.10
2019,03,18,08,15,2.10
2019,03,18,08,16,2.10
2019,03,18,08,17,2.10
2019,03,18,08,18,2.10
2019,03,18,08,19,2.20
2019,03,18,08,20,2.20
2019,03,18,08,21,2.20
2019,03,18,08,22,2.20
2019,03,18,08,23,2.30
2019,03,18,08,24,2.30
2019,03,18,08,25,2.40
2019,03,18,08,26,2.40
2019,03,18,08,27,2.40
2019,03,18,08,28,2.40
2019,03,18,08,29,2.40
2019,03,18,08,30,2.40
2019,03,18,08,31,2.40
2019,03,18,08,32,2.40
2019,03,18,08,33,2.50
2019,03,18,08,34,2.50
2019,03,18,08,35,2.60
2019,03,18,08,36,2.60
2019,03,18,08,37,2.60
2019,03,18,08,38,2.70
2019,03,18,08,39,2.70
2019,03,18,08,40,2.70
2019,03,18,08,41,2.70
2019,03,18,08,42,2.80
2019,03,18,08,43,2.80
2019,03,18,08,44,2.80
2019,03,18,08,45,2.80
2019,03,18,08,46,2.90
2019,03,18,08,47,2.90
2019,03,18,08,48,2.90
2019,03,18,08,49,3.00
2019,03,18,08,50,3.00
2019,03,18,08,51,3.10
2019,03,18,08,52,3.10
2019,03,18,08,53,3.20
2019,03,18,08,54,3.20
2019,03,18,08,55,3.30
2019,03,18,08,56,3.30
2019,03,18,08,57,3.30
2019,03,18,08,58,3.30
2019,03,18,08,59,3.40
2019,03,18,09,00,3.50
2019,03,18,09,01,3.50
2019,03,18,09,02,3.50
2019,03,18,09,03,3.60
2019,03,18,09,04,3.60
2019,03,18,09,05,3.60
2019,03,18,09,06,3.70
2019,03,18,09,07,3.70
2019,03,18,09,08,3.70
2019,03,18,09,09,3.80
2019,03,18,09,10,3.80
2019,03,18,09,11,3.90
2019,03,18,09,12,3.90
2019,03,18,09,13,3.90
2019,03,18,09,14,4.00
2019,03,18,09,15,4.00
2019,03,18,09,16,4.10
2019,03,18,09,17,4.10
2019,03,18,09,18,4.20
2019,03,18,09,19,4.20
2019,03,18,09,20,4.30
2019,03,18,09,21,4.40
2019,03,18,09,22,4.40
2019,03,18,09,23,4.50
2019,03,18,09,24,4.60
2019,03,18,09,25,4.70
2019,03,18,09,26,4.70
2019,03,18,09,27,4.80
2019,03,18,09,28,4.90
2019,03,18,09,29,5.00
2019,03,18,09,30,5.10
2019,03,18,09,31,5.20
2019,03,18,09,32,5.20
2019,03,18,09,33,5.30
2019,03,18,09,34,5.40
2019,03,18,09,35,5.40
2019,03,18,09,36,5.50
2019,03,18,09,37,5.50
2019,03,18,09,38,5.60
2019,03,18,09,39,5.70
2019,03,18,09,40,5.70
2019,03,18,09,41,5.70
2019,03,18,09,42,5.80
2019,03,18,09,43,5.80
2019,03,18,09,44,5.80
2019,03,18,09,45,5.80
2019,03,18,09,46,5.80
2019,03,18,09,47,5.90
2019,03,18,09,48,5.90
2019,03,18,09,49,5.90
2019,03,18,09,50,6.00
2019,03,18,09,51,6.00
2019,03,18,09,52,6.10
2019,03,18,09,53,6.10
2019,03,18,09,54,6.20
2019,03,18,09,55,6.30
2019,03,18,09,56,6.40
2019,03,18,09,57,6.50
2019,03,18,09,58,6.50
2019,03,18,09,59,6.60
2019,03,18,10,00,6.70
2019,03,18,10,01,6.80
2019,03,18,10,02,6.90
2019,03,18,10,03,6.90
2019,03,18,10,04,7.00
2019,03,18,10,05,7.00
2019,03,18,10,06,7.10
2019,03,18,10,07,7.20
2019,03,18,10,08,7.20
2019,03,18,10,09,7.20
2019,03,18,10,10,7.30
2019,03,18,10,11,7.30
2019,03,18,10,12,7.40
2019,03,18,10,13,7.50
2019,03,18,10,14,7.60
2019,03,18,10,15,7.70
2019,03,18,10,16,7.80
2019,03,18,10,17,7.80
2019,03,18,10,18,8.00
2019,03,18,10,19,8.00
2019,03,18,10,20,8.20
2019,03,18,10,21,8.20
2019,03,18,10,22,8.30
2019,03,18,10,23,8.40
2019,03,18,10,24,8.60
2019,03,18,10,25,8.70
2019,03,18,10,26,8.90
2019,03,18,10,27,9.10
2019,03,18,10,28,9.30
2019,03,18,10,29,9.50
2019,03,18,10,30,9.70
2019,03,18,10,31,9.90
2019,03,18,10,32,10.00
2019,03,18,10,33,10.20
2019,03,18,10,34,10.30
2019,03,18,10,35,10.40
2019,03,18,10,36,10.50
2019,03,18,10,37,10.60
2019,03,18,10,38,10.70
2019,03,18,10,39,10.70
2019,03,18,10,40,10.80
2019,03,18,10,41,10.80
2019,03,18,10,42,10.90
2019,03,18,10,43,11.10
2019,03,18,10,44,11.10
2019,03,18,10,45,11.20
2019,03,18,10,46,11.30
2019,03,18,10,47,11.40
2019,03,18,10,48,11.60
2019,03,18,10,49,11.70
2019,03,18,10,50,11.80
2019,03,18,10,51,11.90
2019,03,18,10,52,12.00
2019,03,18,10,53,12.10
2019,03,18,10,54,12.20
2019,03,18,10,55,12.30
2019,03,18,10,56,12.30
2019,03,18,10,57,12.30
2019,03,18,10,58,12.40
2019,03,18,10,59,12.40
2019,03,18,11,00,12.50
2019,03,18,11,01,12.60
2019,03,18,11,02,12.80
2019,03,18,11,03,12.90
2019,03,18,11,04,12.90
2019,03,18,11,05,13.00
2019,03,18,11,06,13.10
2019,03,18,11,07,13.20
2019,03,18,11,08,13.30
2019,03,18,11,09,13.40
2019,03,18,11,10,13.60
2019,03,18,11,11,13.70
2019,03,18,11,12,13.80
2019,03,18,11,13,13.90
2019,03,18,11,14,14.00
2019,03,18,11,15,14.10
2019,03,18,11,16,14.20
2019,03,18,11,17,14.20
2019,03,18,11,18,14.30
2019,03,18,11,19,14.40
2019,03,18,11,20,14.50
2019,03,18,11,21,14.50
2019,03,18,11,22,14.60
2019,03,18,11,23,14.70
2019,03,18,11,24,14.80
2019,03,18,11,25,15.00
2019,03,18,11,26,15.00
2019,03,18,11,27,15.00
2019,03,18,11,28,15.20
2019,03,18,11,29,15.30
2019,03,18,11,30,15.40
2019,03,18,11,31,15.50
2019,03,18,11,32,15.50
2019,03,18,11,33,15.50
2019,03,18,11,34,15.50
2019,03,18,11,35,15.50
2019,03,18,11,36,15.60
2019,03,18,11,37,15.60
2019,03,18,11,38,15.60
2019,03,18,11,39,15.60
2019,03,18,11,40,15.70
2019,03,18,11,41,15.70
2019,03,18,11,42,15.70
2019,03,18,11,43,15.80
2019,03,18,11,44,15.80
2019,03,18,11,45,15.90
2019,03,18,11,46,15.90
2019,03,18,11,47,16.00
2019,03,18,11,48,16.00
2019,03,18,11,49,15.90
2019,03,18,11,50,15.90
2019,03,18,11,51,15.90
2019,03,18,11,52,16.00
2019,03,18,11,53,16.00
2019,03,18,11,54,16.00
2019,03,18,11,55,16.00
2019,03,18,11,56,16.00
2019,03,18,11,57,16.00
2019,03,18,11,58,16.10
2019,03,18,11,59,16.10
2019,03,18,12,00,16.10
2019,03,18,12,01,16.10
2019,03,18,12,02,16.10
2019,03,18,12,03,16.20
2019,03,18,12,04,16.30
2019,03,18,12,05,16.30
2019,03,18,12,06,16.40
2019,03,18,12,07,16.50
2019,03,18,12,08,16.50
2019,03,18,12,09,16.60
2019,03,18,12,10,16.70
2019,03,18,12,11,16.80
2019,03,18,12,12,16.80
2019,03,18,12,13,16.80
2019,03,18,12,14,16.80
2019,03,18,12,15,16.80
2019,03,18,12,16,16.90
2019,03,18,12,17,16.90
2019,03,18,12,18,16.90
2019,03,18,12,19,16.90
2019,03,18,12,20,16.80
2019,03,18,12,21,16.80
2019,03,18,12,22,16.80
2019,03,18,12,23,16.80
2019,03,18,12,24,16.80
2019,03,18,12,25,16.90
2019,03,18,12,26,16.90
2019,03,18,12,27,16.90
2019,03,18,12,28,17.00
2019,03,18,12,29,17.10
2019,03,18,12,30,17.10
2019,03,18,12,31,17.20
2019,03,18,12,32,17.30
2019,03,18,12,33,17.30
2019,03,18,12,34,17.30
2019,03,18,12,35,17.30
2019,03,18,12,36,17.30
2019,03,18,12,37,17.30
2019,03,18,12,38,17.30
2019,03,18,12,39,17.30
2019,03,18,12,40,17.30
2019,03,18,12,41,17.30
2019,03,18,12,42,17.40
2019,03,18,12,43,17.40
2019,03,18,12,44,17.40
2019,03,18,12,45,17.50
2019,03,18,12,46,17.50
2019,03,18,12,47,17.60
2019,03,18,12,48,17.60
2019,03,18,12,49,17.60
2019,03,18,12,50,17.60
2019,03,18,12,51,17.60
2019,03,18,12,52,17.60
2019,03,18,12,53,17.60
2019,03,18,12,54,17.60
2019,03,18,12,55,17.60
2019,03,18,12,56,17.70
2019,03,18,12,57,17.70
2019,03,18,12,58,17.80
2019,03,18,12,59,17.80
2019,03,18,13,00,17.90
2019,03,18,13,01,17.90
2019,03,18,13,02,18.00
2019,03,18,13,03,18.10
2019,03,18,13,04,18.20
2019,03,18,13,05,18.20
2019,03,18,13,06,18.30
2019,03,18,13,07,18.30
2019,03,18,13,08,18.40
2019,03,18,13,09,18.40
2019,03,18,13,10,18.40
2019,03,18,13,11,18.30
2019,03,18,13,12,18.30
2019,03,18,13,13,18.30
2019,03,18,13,14,18.30
2019,03,18,13,15,18.30
2019,03,18,13,16,18.40
2019,03,18,13,17,18.40
2019,03,18,13,18,18.40
2019,03,18,13,19,18.40
2019,03,18,13,20,18.50
2019,03,18,13,21,18.50
2019,03,18,13,22,18.50
2019,03,18,13,23,18.40
2019,03,18,13,24,18.40
2019,03,18,13,25,18.30
2019,03,18,13,26,18.30
2019,03,18,13,27,18.30
2019,03,18,13,28,18.20
2019,03,18,13,29,18.20
2019,03,18,13,30,18.30
2019,03,18,13,31,18.30
2019,03,18,13,32,18.40
2019,03,18,13,33,18.40
2019,03,18,13,34,18.50
2019,03,18,13,35,18.60
2019,03,18,13,36,18.60
2019,03,18,13,37,18.60
2019,03,18,13,38,18.50
2019,03,18,13,39,18.40
2019,03,18,13,40,18.40
2019,03,18,13,41,18.30
2019,03,18,13,42,18.30
2019,03,18,13,43,18.30
2019,03,18,13,44,18.20
2019,03,18,13,45,18.10
2019,03,18,13,46,18.10
2019,03,18,13,47,18.20
2019,03,18,13,48,18.30
2019,03,18,13,49,18.40
2019,03,18,13,50,18.40
2019,03,18,13,51,18.50
2019,03,18,13,52,18.50
2019,03,18,13,53,18.60
2019,03,18,13,54,18.60
2019,03,18,13,55,18.60
2019,03,18,13,56,18.70
2019,03,18,13,57,18.70
2019,03,18,13,58,18.80
2019,03,18,13,59,18.90
2019,03,18,14,00,19.00
2019,03,18,14,01,19.10
2019,03,18,14,02,19.20
2019,03,18,14,03,19.20
2019,03,18,14,04,19.30
2019,03,18,14,05,19.30
2019,03,18,14,06,19.40
2019,03,18,14,07,19.40
2019,03,18,14,08,19.40
2019,03,18,14,09,19.40
2019,03,18,14,10,19.40
2019,03,18,14,11,19.40
2019,03,18,14,12,19.40
2019,03,18,14,13,19.50
2019,03,18,14,14,19.50
2019,03,18,14,15,19.50
2019,03,18,14,16,19.60
2019,03,18,14,17,19.60
2019,03,18,14,18,19.60
2019,03,18,14,19,19.60
2019,03,18,14,20,19.70
2019,03,18,14,21,19.70
2019,03,18,14,22,19.70
2019,03,18,14,23,19.70
2019,03,18,14,24,19.70
2019,03,18,14,25,19.80
2019,03,18,14,26,19.80
2019,03,18,14,27,19.80
2019,03,18,14,28,19.80
2019,03,18,14,29,19.80
2019,03,18,14,30,19.80
2019,03,18,14,31,19.90
2019,03,18,14,32,19.90
2019,03,18,14,33,19.90
2019,03,18,14,34,20.00
2019,03,18,14,35,20.00
2019,03,18,14,36,20.00
2019,03,18,14,37,20.00
2019,03,18,14,38,20.00
2019,03,18,14,39,20.00
2019,03,18,14,40,19.90
2019,03,18,14,41,19.90
2019,03,18,14,42,19.80
2019,03,18,14,43,19.80
2019,03,18,14,44,19.80
2019,03,18,14,45,19.90
2019,03,18,14,46,19.90
2019,03,18,14,47,20.00
2019,03,18,14,48,20.10
2019,03,18,14,49,20.10
2019,03,18,14,50,20.20
2019,03,18,14,51,20.30
2019,03,18,14,52,20.40
2019,03,18,14,53,20.40
2019,03,18,14,54,20.40
2019,03,18,14,55,20.30
2019,03,18,14,56,20.30
2019,03,18,14,57,20.20
2019,03,18,14,58,20.30
2019,03,18,14,59,20.30
2019,03,18,15,00,20.30
2019,03,18,15,01,20.20
2019,03,18,15,02,20.20
2019,03,18,15,03,20.20
2019,03,18,15,04,20.30
2019,03,18,15,05,20.30
2019,03,18,15,06,20.40
2019,03,18,15,07,20.50
2019,03,18,15,08,20.50
2019,03,18,15,09,20.60
2019,03,18,15,10,20.60
2019,03,18,15,11,20.70
2019,03,18,15,12,20.70
2019,03,18,15,13,20.80
2019,03,18,15,14,20.80
2019,03,18,15,15,20.70
2019,03,18,15,16,20.70
2019,03,18,15,17,20.70
2019,03,18,15,18,20.70
2019,03,18,15,19,20.70
2019,03,18,15,20,20.70
2019,03,18,15,21,20.70
2019,03,18,15,22,20.80
2019,03,18,15,23,20.80
2019,03,18,15,24,20.90
2019,03,18,15,25,21.00
2019,03,18,15,26,21.00
2019,03,18,15,27,21.00
2019,03,18,15,28,21.10
2019,03,18,15,29,21.20
2019,03,18,15,30,21.20
2019,03,18,15,31,21.30
2019,03,18,15,32,21.40
2019,03,18,15,33,21.40
2019,03,18,15,34,21.40
2019,03,18,15,35,21.30
2019,03,18,15,36,21.20
2019,03,18,15,37,21.20
2019,03,18,15,38,21.10
2019,03,18,15,39,21.00
2019,03,18,15,40,20.90
2019,03,18,15,41,20.80
2019,03,18,15,42,20.70
2019,03,18,15,43,20.70
2019,03,18,15,44,20.70
2019,03,18,15,45,20.70
2019,03,18,15,46,20.70
2019,03,18,15,47,20.80
2019,03,18,15,48,20.80
2019,03,18,15,49,20.80
2019,03,18,15,50,20.80
2019,03,18,15,51,20.80
2019,03,18,15,52,20.80
2019,03,18,15,53,20.80
2019,03,18,15,54,20.70
2019,03,18,15,55,20.70
2019,03,18,15,56,20.70
2019,03,18,15,57,20.70
2019,03,18,15,58,20.70
2019,03,18,15,59,20.70
2019,03,18,16,00,20.70
2019,03,18,16,01,20.70
2019,03,18,16,02,20.80
2019,03,18,16,03,20.80
2019,03,18,16,04,20.90
2019,03,18,16,05,20.90
2019,03,18,16,06,21.00
2019,03,18,16,07,21.10
2019,03,18,16,08,21.10
2019,03,18,16,09,21.20
2019,03,18,16,10,21.30
2019,03,18,16,11,21.30
2019,03,18,16,12,21.40
2019,03,18,16,13,21.40
2019,03,18,16,14,21.40
2019,03,18,16,15,21.30
2019,03,18,16,16,21.30
2019,03,18,16,17,21.30
2019,03,18,16,18,21.30
2019,03,18,16,19,21.30
2019,03,18,16,20,21.30
2019,03,18,16,21,21.30
2019,03,18,16,22,21.20
2019,03,18,16,23,21.20
2019,03,18,16,24,21.20
2019,03,18,16,25,21.20
2019,03,18,16,26,21.20
2019,03,18,16,27,21.20
2019,03,18,16,28,21.30
2019,03,18,16,29,21.30
2019,03,18,16,30,21.30
2019,03,18,16,31,21.30
2019,03,18,16,32,21.40
2019,03,18,16,33,21.40
2019,03,18,16,34,21.50
2019,03,18,16,35,21.50
2019,03,18,16,36,21.60
2019,03,18,16,37,21.60
2019,03,18,16,38,21.70
2019,03,18,16,39,21.80
2019,03,18,16,40,21.80
2019,03,18,16,41,21.90
2019,03,18,16,42,21.90
2019,03,18,16,43,22.00
2019,03,18,16,44,22.00
2019,03,18,16,45,22.10
2019,03,18,16,46,22.10
2019,03,18,16,47,22.10
2019,03,18,16,48,22.10
2019,03,18,16,49,22.10
2019,03,18,16,50,22.10
2019,03,18,16,51,22.10
2019,03,18,16,52,22.10
2019,03,18,16,53,22.10
2019,03,18,16,54,22.10
2019,03,18,16,55,22.10
2019,03,18,16,56,22.10
2019,03,18,16,57,22.10
2019,03,18,16,58,21.90
2019,03,18,16,59,21.80
2019,03,18,17,00,21.70
2019,03,18,17,01,21.60
2019,03,18,17,02,21.60
2019,03,18,17,03,21.60
2019,03,18,17,04,21.50
2019,03,18,17,05,21.60
2019,03,18,17,06,21.60
2019,03,18,17,07,21.60
2019,03,18,17,08,21.60
2019,03,18,17,09,21.60
2019,03,18,17,10,21.60
2019,03,18,17,11,21.60
2019,03,18,17,12,21.50
2019,03,18,17,13,21.40
2019,03,18,17,14,21.40
2019,03,18,17,15,21.40
2019,03,18,17,16,21.40
2019,03,18,17,17,21.40
2019,03,18,17,18,21.40
2019,03,18,17,19,21.30
2019,03,18,17,20,21.30
2019,03,18,17,21,21.30
2019,03,18,17,22,21.30
2019,03,18,17,23,21.30
2019,03,18,17,24,21.30
2019,03,18,17,25,21.20
2019,03,18,17,26,21.20
2019,03,18,17,27,21.20
2019,03,18,17,28,21.20
2019,03,18,17,29,21.20
2019,03,18,17,30,21.30
2019,03,18,17,31,21.30
2019,03,18,17,32,21.40
2019,03,18,17,33,21.40
2019,03,18,17,34,21.40
2019,03,18,17,35,21.50
2019,03,18,17,36,21.50
2019,03,18,17,37,21.60
2019,03,18,17,38,21.60
2019,03,18,17,39,21.60
2019,03,18,17,40,21.70
2019,03,18,17,41,21.70
2019,03,18,17,42,21.70
2019,03,18,17,43,21.70
2019,03,18,17,44,21.70
2019,03,18,17,45,21.70
2019,03,18,17,46,21.70